Orbital Elements at Epoch 2459000.5 (2020-May-31.0) TDB
Reference: JPL 19 (heliocentric ecliptic J2000)
Element | Value | Uncertainty (1-sigma) | Units |
e | .05085220734325476 | 4.1235e-08 | |
a | 2.686067860600226 | 1.7717e-08 | au |
q | 2.549475380814931 | 1.12e-07 | au |
i | 5.337063008751624 | 5.4089e-06 | deg |
node | 5.480662975267408 | 4.7651e-05 | deg |
peri | 305.3181999496435 | 7.0746e-05 | deg |
M | 314.5926692986695 | 5.2828e-05 | deg |
tp | 2459203.313737850673 (2020-Dec-19.81373785) | 0.00023621 | TDB |
period | 1607.955026171646 4.40 | 1.5909e-05 4.356e-08 | d yr |
n | .2238868588614187 | 2.2151e-09 | deg/d |
Q | 2.822660340385521 | 1.8618e-08 | au |
|
| | Orbit Determination Parameters
Additional Information
|